Regional Weather Roundup
Issued by NWS Midland/Odessa, TX

Skip options and go directly to product.
Home | Oldest Version | Previous Version | Current Version | All | Text Only | Save Text | Print | Product List | Glossary Off

Skip product version selection by date and time.   

948
ASUS44 KMAF 260110
RWRMAF
MIDLAND AREA WEATHER ROUNDUP
NATIONAL WEATHER SERVICE MIDLAND TX
700 PM CST SAT FEB 25 2017

...IN SOUTHWEST TEXAS AND SOUTHEAST NEW MEXICO...

CITY           SKY/WX    TMP DP  RH WIND       PRES   REMARKS
ALPINE         CLEAR     57   0  10 SW6       30.01R
ANDREWS        FAIR      52  24  34 SE7       29.93F
ARTESIA        CLEAR     57   3  11 S12       29.85S
BIG SPRING     CLEAR     52  28  40 E9        29.98F
CARLSBAD       CLEAR     56  18  22 S10       29.86F
DRYDEN           N/A     61  29  29 E10       29.95R
FORT STOCKTON  CLEAR     61  25  25 SE15      29.92S
GUAD PASS      CLEAR     53  -3  10 W33G39      N/A
HOBBS          CLEAR     50  16  25 SE7       29.91F
MARFA          CLEAR     56   1  10 W8        29.98S
MIDLAND AIRPK  CLEAR     58  25  28 SE7       29.94F
MIDLAND INTL   CLEAR     57  24  28 SE10      29.93F
ODESSA           N/A    N/A N/A N/A MISG      29.93F
PECOS          CLEAR     62  20  20 E10       29.89S
PRESIDIO       FAIR      71   4   7 CALM      29.90F
SEMINOLE       CLEAR     50  23  34 SE7       29.93F
SNYDER         CLEAR     49  26  39 SE8       29.99F
WINK           CLEAR     59  19  21 SE9       29.89F
$$
...OTHER STATIONS IN TEXAS...

CITY           SKY/WX    TMP DP  RH WIND       PRES   REMARKS
ABILENE        CLEAR     47  26  44 SE9       30.02F
AMARILLO       CLEAR     46  18  32 S17G25    29.87F WCI  39
AUSTIN         PTCLDY    55  32  41 NE8       30.06S
BROWNSVILLE    CLOUDY    68  58  70 NE8       30.02S
CORPUS CHRISTI CLEAR     60  46  59 E8        30.05S
DALLAS FTW     PTCLDY    51  19  28 CALM      30.07F
DEL RIO        CLEAR     64  31  28 SE8       29.98R
EL PASO        PTCLDY    62   4  10 S12       29.89F
HOUSTON INT    PTCLDY    56  36  47 VRB6      30.07R
LUBBOCK        PTCLDY    47  21  35 S14       29.93F
SAN ANGELO     CLEAR     55  31  39 E7        29.98F
SAN ANTONIO    CLEAR     57  30  35 E6        30.04S
WACO           CLEAR     47  31  53 NE5       30.09S
WICHITA FALLS  NOT AVBL
$$
...OTHER LOCATIONS IN NEW MEXICO...

CITY           SKY/WX    TMP DP  RH WIND       PRES   REMARKS
ALAMAGORDO     CLEAR     52  10  19 S7        29.90S
ALBUQUERQUE    CLOUDY    50  -7   9 W17       29.86S
CANNON AFB     NOT AVBL
CLOVIS         CLEAR     46  18  31 S13       29.86F
HOLLOMAN AFB   CLEAR     58  -3   8 SW14      29.92S
ROSWELL        CLEAR     53  17  24 SE3         N/A
RUIDOSO        CLEAR     43  -2  15 SW15      29.92S WCI  35
SANTA FE       CLOUDY    40   5  23 SW6       29.84F WCI  36
TRUTH OR CONSE CLEAR     57  -7   7 SW16      29.86R
TUCUMCARI      CLEAR     51   3  14 SW13      29.81R
$$

  • National Weather Service
  • Southern Region Headquarters
  • 819 Taylor Street, Room 10A06
  • Fort Worth, TX 76102
  • Page Author: NWS Fort Worth
  • Web Master: SR-SRH.Webmaster@noaa.gov
  •  
  • Page last modified: 30-Sep-2016 6:36 PM UTC
USA.gov is the U.S. government's official web portal to all federal, state and local government web resources and services.